sat.trackr.live / text

‹ back to catalog

HULIANWANG DIGUI-145

NORAD 67443 · 2026-007J

PAYLOAD ACTIVE UNKNOWN

§ Identity

Operator
Country
PRC
Launch date
2026-01-13
Launch site
WSC
Launch vehicle
Mass (kg)
RCS (m²)

External: N2YO · Heavens-Above · Gunter

§ Orbital elements

Epoch: 2026-05-25T00:48:56.672928Z

Period
108.33 min
Inclination
50.0072°
Eccentricity
0.0000843
Mean motion
13.29324627 rev/d
Perigee alt
1,148.7 km
Apogee alt
1,149.9 km
Semi-major
7,527.4 km
B*
9.2203e-5
RAAN
168.5376°
Arg perigee
280.5751°
Mean anomaly
79.5026°
Rev number
1,771

§ Raw data

HULIANWANG DIGUI-1451 67443U 26007J   26145.03398927 -.00000081  00000+0  92203-4 0  99972 67443  50.0072 168.5376 0000843 280.5751  79.5026 13.29324627 17713

JSON: /api/v1/satellites/67443 · /tle

For live sub-satellite position, see the globe view (requires WebGL).

§ Visibility from observer

Set your observer location to see the next 7 days of passes ≥ 10°. The values pass through the URL so the page stays shareable.

No JS? Fill the form by hand. The geolocation button needs JavaScript.